Hickam AFB, HI

8:26 AM HST on January 17, 2017 (GMT -1000)
Honolulu International

Weather History for PHNL - January, 2014

Change the Weather History Date:

Wednesday, January 29, 2014

  Actual Average Record
Temperature  
Mean Temperature 73 °F 73 °F  
Max Temperature 78 °F 80 °F 84 °F (1995)
Min Temperature 68 °F 66 °F 56 °F (1994)
Degree Days  
Heating Degree Days 0 0  
Month to date heating degree days 0 0  
Since 1 July heating degree days 0 0  
Cooling Degree Days 8 8  
Month to date cooling degree days 228 234  
Year to date cooling degree days 228 234  
Growing Degree Days 22 (Base 50)    
Moisture  
Dew Point 65 °F    
Average Humidity 77    
Maximum Humidity 90    
Minimum Humidity 64    
Precipitation  
Precipitation 0.14 in 0.06 in 2.10 in (2002)
Month to date precipitation 2.35 2.18  
Year to date precipitation 2.35 2.18  
Snow  
Snow 0.00 in - - ()
Month to date snowfall 0.0  
Since 1 July snowfall 0.0  
Snow Depth 0.00 in    
Sea Level Pressure  
Sea Level Pressure 30.01 in    
Wind  
Wind Speed 12 mph (NE)    
Max Wind Speed 23 mph    
Max Gust Speed 30 mph    
Visibility 10 miles    
Events Rain    
T = Trace of Precipitation, MM = Missing Value Source: NWS Daily Summary

Daily Weather History Graph

Daily Weather History Graph

Search for Another Location

Airport or City:

Trip Planner

Search our weather history database for the weather conditions in past years. The results will help you decide how hot, cold, wet, or windy it might be!

Date:

Astronomy

Jan. 29, 2014 Rise Set
Actual Time 7:09 AM HST 6:20 PM HST
Civil Twilight 6:46 AM HST 6:43 PM HST
Nautical Twilight 6:19 AM HST 7:10 PM HST
Astronomical Twilight 5:53 AM HST 7:36 PM HST
Moon 5:56 AM HST (1/29) 5:31 PM HST (1/29)
Length of Visible Light 11h 56m
Length of Day
11h 10m
Waning Crescent, 2% of the Moon is Illuminated
Jan 29
Waning Crescent
Jan 30
New
Feb 6
First Quarter
Feb 14
Full
Feb 22
Last Quarter

Hourly Weather History & Observations

Time (HST) Temp. Dew Point Humidity Pressure Visibility Wind Dir Wind Speed Gust Speed Precip Events Conditions
12:53 AM 70.0 °F 64.9 °F 84% 30.05 in 10.0 mi NNE 12.7 mph 17.3 mph 0.01 in   Mostly Cloudy
1:53 AM 70.0 °F 66.0 °F 87% 30.06 in 10.0 mi ENE 5.8 mph - 0.00 in   Mostly Cloudy
2:02 AM 69.8 °F 64.4 °F 83% 30.06 in 4.0 mi NE 9.2 mph 18.4 mph 0.04 in Rain Heavy Rain
2:53 AM 68.0 °F 64.9 °F 90% 30.03 in 8.0 mi NE 17.3 mph 23.0 mph 0.05 in Rain Light Rain
3:15 AM 68.0 °F 64.4 °F 88% 30.01 in 10.0 mi NNE 13.8 mph - 0.00 in   Overcast
3:24 AM 68.0 °F 66.2 °F 94% 30.02 in 10.0 mi ENE 10.4 mph - 0.00 in   Mostly Cloudy
3:31 AM 69.8 °F 66.2 °F 88% 30.01 in 10.0 mi ENE 10.4 mph - 0.00 in   Mostly Cloudy
3:42 AM 69.8 °F 66.2 °F 88% 30.01 in 10.0 mi ENE 21.9 mph - 0.00 in   Mostly Cloudy
3:53 AM 70.0 °F 64.9 °F 84% 30.00 in 10.0 mi ENE 15.0 mph 24.2 mph 0.00 in   Overcast
4:53 AM 69.1 °F 64.9 °F 87% 30.01 in 8.0 mi NNE 6.9 mph - 0.00 in Rain Light Rain
5:04 AM 69.8 °F 64.4 °F 83% 30.01 in 10.0 mi North 4.6 mph - 0.00 in   Mostly Cloudy
5:53 AM 71.1 °F 63.0 °F 75% 30.02 in 10.0 mi Variable 4.6 mph - 0.00 in   Mostly Cloudy
6:53 AM 69.1 °F 64.9 °F 87% 30.04 in 10.0 mi North 10.4 mph 19.6 mph 0.06 in Rain Light Rain
7:53 AM 71.1 °F 64.0 °F 78% 30.04 in 10.0 mi ENE 13.8 mph 24.2 mph 0.00 in   Mostly Cloudy
8:53 AM 72.0 °F 64.9 °F 78% 30.06 in 10.0 mi ENE 16.1 mph 23.0 mph N/A   Mostly Cloudy
9:53 AM 73.9 °F 64.9 °F 73% 30.06 in 10.0 mi ENE 16.1 mph 21.9 mph N/A   Mostly Cloudy
10:53 AM 75.9 °F 64.9 °F 69% 30.04 in 10.0 mi ENE 16.1 mph 23.0 mph N/A   Mostly Cloudy
11:53 AM 77.0 °F 64.9 °F 66% 30.03 in 10.0 mi ENE 16.1 mph 24.2 mph N/A   Mostly Cloudy
12:53 PM 75.9 °F 64.0 °F 67% 30.01 in 10.0 mi East 8.1 mph - N/A   Mostly Cloudy
1:53 PM 77.0 °F 66.0 °F 69% 30.00 in 10.0 mi NE 15.0 mph - 0.00 in   Mostly Cloudy
2:53 PM 75.9 °F 66.0 °F 71% 29.98 in 10.0 mi ENE 15.0 mph 23.0 mph 0.00 in   Mostly Cloudy
3:53 PM 73.9 °F 68.0 °F 82% 29.96 in 10.0 mi ENE 13.8 mph - 0.02 in Rain Light Rain
4:53 PM 75.0 °F 66.0 °F 73% 29.96 in 10.0 mi ENE 17.3 mph 27.6 mph 0.00 in Rain Light Rain
5:53 PM 73.9 °F 64.0 °F 71% 29.95 in 10.0 mi NE 15.0 mph - 0.00 in   Mostly Cloudy
6:53 PM 73.9 °F 64.0 °F 71% 29.97 in 10.0 mi ENE 17.3 mph 21.9 mph N/A   Scattered Clouds
7:53 PM 73.9 °F 64.0 °F 71% 29.99 in 10.0 mi ENE 9.2 mph 19.6 mph N/A   Scattered Clouds
8:53 PM 73.0 °F 66.0 °F 79% 30.00 in 10.0 mi East 8.1 mph - 0.00 in   Partly Cloudy
9:53 PM 72.0 °F 64.0 °F 76% 30.00 in 10.0 mi NE 10.4 mph - N/A   Partly Cloudy
10:53 PM 72.0 °F 64.0 °F 76% 30.01 in 10.0 mi ENE 13.8 mph - N/A   Partly Cloudy
11:53 PM 71.1 °F 64.0 °F 78% 29.99 in 10.0 mi NNE 3.5 mph - N/A   Partly Cloudy